Wind_Speed
41 38 32 27 24 20 9 6 9 13 7 7 12 16 19 20 18 21 24 26 35 37 30 32 28 29 27 21 23 23 27 30 34 33 14 8 4 8 7 11 14 19 23 26 25 18 9 13 15
40 38 30 30 24 20 16 15 10 13 10 7 6 9 15 21 27 24 25 33 33 31 38 30 38 39 33 29 29 33 44 37 37 29 10 5 6 11 7 10 13 18 21 23 23 19 17 15 14
39 34 29 30 27 23 19 15 14 15 13 8 5 5 7 15 25 27 31 28 33 36 36 38 41 39 35 33 33 36 39 33 31 21 6 6 8 7 7 9 12 21 17 21 24 21 16 16 19
39 38 32 30 29 26 21 16 18 17 13 10 3 3 2 1 12 30 31 29 28 31 31 34 39 35 34 37 34 35 35 31 24 9 5 4 4 5 6 7 9 18 17 20 24 26 19 16 19
40 37 31 30 28 24 22 21 21 19 16 15 10 6 3 4 2 17 31 29 28 26 29 30 33 33 29 27 25 23 22 16 14 11 9 5 4 3 4 7 9 16 19 23 26 26 24 18 20
40 38 33 31 27 25 24 22 21 20 19 17 14 10 6 2 2 5 17 23 23 21 22 23 22 21 21 18 17 16 14 12 11 10 9 6 2 1 2 7 10 18 21 24 27 25 26 18 20
40 39 34 30 26 24 22 22 19 19 18 14 14 12 2 8 7 8 12 16 19 19 18 17 13 15 12 15 16 14 10 11 12 12 9 4 2 5 6 7 13 18 21 22 24 23 25 21 23
39 39 34 29 25 22 22 22 20 18 18 17 20 18 8 7 13 11 9 10 13 15 18 13 9 13 20 17 18 12 9 15 15 11 8 3 6 6 1 5 8 14 18 20 23 22 25 20 21
39 37 34 28 26 20 21 21 17 16 21 22 25 22 27 21 8 10 10 11 10 11 18 14 13 10 12 11 10 11 19 17 15 13 7 5 4 4 5 5 7 13 16 16 21 24 24 22 24
37 38 32 26 24 19 18 19 16 13 18 21 24 24 28 28 26 19 8 7 11 13 13 14 10 8 10 10 18 22 20 19 15 10 7 6 5 6 9 8 10 13 11 13 18 22 22 26 22
35 35 31 25 20 20 16 17 15 10 16 16 20 23 26 29 28 23 21 19 16 13 12 11 12 15 17 19 23 22 19 14 11 9 6 7 9 8 9 9 13 14 13 15 15 19 19 23 23
34 33 29 25 19 15 15 15 12 9 10 12 15 17 24 24 23 21 23 22 24 26 25 23 21 22 22 21 21 19 15 12 11 6 4 5 6 7 6 8 13 17 21 17 15 6 16 20 21
34 33 28 24 19 15 13 12 12 6 7 9 11 14 15 17 18 19 16 18 18 21 21 19 18 16 18 18 16 15 13 10 9 7 6 5 4 8 9 15 15 15 16 23 18 15 16 18 23
33 31 29 24 20 15 14 11 7 6 3 5 8 13 11 9 7 11 14 15 18 17 18 19 17 15 14 13 12 10 8 8 10 7 6 8 9 8 12 13 18 18 16 14 25 17 19 22 21
30 29 28 24 19 13 25 19 9 4 3 6 4 7 9 8 6 10 13 12 13 11 9 11 12 13 12 12 10 11 10 9 8 4 4 4 2 5 9 14 9 12 11 14 17 21 16 18 19
28 28 27 27 21 11 4 13 11 5 1 5 6 5 9 12 11 10 11 11 10 9 10 10 10 11 12 12 12 9 8 8 6 6 4 2 6 7 13 17 16 14 13 12 10 18 21 17 18
25 3 30 27 23 14 9 14 13 10 3 5 7 8 9 10 9 9 8 9 11 8 7 6 8 8 8 10 11 5 10 7 4 4 5 4 4 12 14 17 14 17 16 12 11 15 15 22 23
26 26 27 26 21 15 10 11 16 15 11 8 8 12 10 12 10 10 11 10 6 9 8 5 2 1 3 9 9 11 11 6 5 9 7 6 17 15 13 12 15 17 16 12 9 9 11 14 20
23 26 27 25 20 16 12 11 14 19 16 12 9 15 15 16 16 13 16 11 4 2 3 2 1 2 3 3 8 10 11 9 7 5 4 5 7 6 5 9 10 17 15 12 11 7 11 15 20
22 26 27 23 19 17 14 11 10 18 25 19 17 12 19 17 17 16 18 12 5 9 14 13 6 5 6 9 6 9 11 13 16 11 9 7 7 7 9 10 11 17 14 13 14 13 8 17 21
22 25 24 20 15 15 17 6 15 28 28 28 23 18 18 21 22 17 12 17 15 15 18 15 15 9 12 14 12 12 14 15 13 15 15 12 10 17 14 15 22 20 17 19 16 11 15 13 20
22 24 20 18 13 13 15 9 8 7 26 26 26 27 22 21 24 26 22 9 26 23 19 16 21 12 14 18 18 15 18 18 19 19 18 18 23 24 22 26 24 27 21 24 10 16 11 13 15
22 23 19 18 14 16 17 16 14 25 23 22 21 23 29 25 25 28 30 32 30 30 24 23 24 26 23 16 18 24 25 24 22 16 22 24 25 23 30 27 34 30 22 13 9 8 10 12 16
24 20 17 16 13 14 12 17 15 3 36 25 18 20 24 29 28 28 32 39 41 39 30 30 23 24 19 16 19 20 19 26 24 23 23 25 27 26 27 35 30 23 19 17 13 15 18 22 25
23 18 17 16 13 14 13 20 26 27 27 24 21 21 19 21 26 29 30 29 30 29 31 32 22 22 21 20 21 24 25 28 32 29 27 30 29 27 24 32 30 26 22 28 31 31 39 39 38
23 20 20 18 14 6 12 22 30 29 31 29 23 24 22 21 22 21 25 29 32 33 33 30 31 27 26 26 27 28 26 32 35 38 39 40 42 42 36 37 39 38 33 32 40 42 45 46 50
28 25 22 19 18 15 19 14 30 29 29 31 26 27 24 22 22 20 20 23 27 31 35 40 41 36 35 34 36 31 34 34 36 36 37 40 41 43 46 52 54 55 57 56 54 59 61 61 59
31 29 23 22 20 18 22 21 25 25 34 35 30 30 28 26 24 23 21 20 23 25 27 34 41 42 38 37 37 39 38 40 40 39 40 43 45 45 47 52 55 58 60 65 65 69 75 74 74
35 30 27 26 25 24 19 21 19 4 39 43 40 31 31 28 26 25 23 21 21 22 23 26 29 34 34 38 39 40 41 41 44 46 49 51 52 55 58 63 63 67 72 69 74 75 71 74 76
36 35 34 32 33 28 23 23 26 27 46 47 41 30 28 29 27 27 25 23 21 22 22 23 25 27 30 32 33 37 42 45 48 52 54 55 59 63 64 66 69 72 76 79 81 77 77 75 70
Wind_Direction
5 3 1 356 5 12 15 349 15 11 335 294 265 252 239 224 216 210 210 203 223 228 225 228 231 235 246 242 272 275 293 289 289 301 328 326 337 346 346 5 3 12 17 17 18 21 11 1 4
3 2 355 358 359 9 15 21 12 3 6 346 295 262 240 230 225 219 213 204 207 214 222 240 245 254 256 251 264 280 285 292 291 305 323 331 328 316 345 357 1 14 18 20 21 13 14 5 352
3 0 1 354 357 9 16 12 15 12 14 356 311 255 230 233 224 215 222 221 223 226 234 240 249 256 262 264 270 274 282 293 295 301 303 331 328 300 329 333 1 6 26 23 20 13 2 359 347
1 2 0 354 5 9 14 16 16 13 23 15 328 346 355 283 230 218 217 219 224 230 235 238 245 252 257 261 262 271 276 278 278 269 262 289 306 288 318 331 352 11 21 19 14 12 14 15 0
0 2 359 2 11 14 15 8 13 15 16 14 9 357 347 6 357 212 214 218 223 227 231 237 244 249 253 258 257 265 265 259 251 246 235 254 251 254 310 356 2 6 14 6 5 9 14 21 9
360 359 0 5 12 18 14 8 17 19 14 6 357 342 305 248 103 184 197 213 219 224 223 230 238 241 248 246 249 256 250 239 224 202 207 218 236 186 95 5 359 7 7 3 1 2 8 10 10
355 359 359 4 12 15 12 11 20 25 17 15 29 21 240 198 171 170 186 205 217 221 221 221 230 243 230 232 239 255 239 198 182 171 182 190 144 74 351 359 5 1 6 6 2 3 9 14 12
354 356 357 2 9 12 11 15 23 30 26 30 36 35 58 173 177 180 181 188 201 208 202 200 231 243 238 246 246 232 183 162 152 154 157 134 130 107 122 348 347 340 344 358 2 5 8 23 19
352 352 354 360 2 9 10 18 26 37 34 43 47 50 59 63 117 176 193 209 213 205 209 230 260 256 240 226 195 156 140 136 143 142 138 101 123 176 282 334 7 352 348 349 4 4 8 23 31
349 348 352 356 358 3 12 21 30 54 49 49 51 58 68 69 70 78 115 201 215 218 218 231 221 196 162 156 139 135 132 134 137 129 115 94 94 76 62 40 5 354 6 2 1 3 10 27 29
343 344 346 349 354 354 4 14 33 59 63 63 66 77 73 72 74 80 85 89 101 121 142 142 133 131 123 122 127 128 132 135 132 108 92 79 86 68 51 30 28 14 3 5 9 9 17 25 26
338 340 339 342 343 352 350 7 16 46 70 87 84 87 85 77 78 85 93 101 109 112 112 107 107 111 115 122 129 134 131 125 121 110 108 90 76 63 50 41 28 30 33 31 52 307 22 24 26
333 336 334 335 338 341 351 2 9 23 72 85 92 104 101 88 90 88 106 114 108 115 117 108 110 117 121 122 124 127 122 118 122 115 108 92 74 59 42 37 27 29 21 30 34 38 31 29 26
327 332 327 331 333 334 343 346 354 23 48 103 106 115 123 111 80 71 79 112 106 113 113 112 102 110 126 124 128 127 123 115 110 87 92 103 109 87 42 25 15 17 32 12 33 26 29 32 17
322 325 321 324 331 331 15 316 320 25 9 175 147 113 118 115 94 72 84 94 88 94 100 111 114 121 128 138 138 142 136 116 90 76 100 109 79 35 36 35 16 359 26 34 7 14 22 32 28
319 323 316 317 324 331 281 282 299 322 71 259 165 175 133 126 121 107 107 95 81 84 89 93 117 121 135 143 148 147 160 145 124 112 105 66 99 36 357 18 19 17 20 32 17 356 11 3 8
311 222 301 311 315 326 307 301 295 291 283 253 215 200 182 162 147 131 127 118 113 82 70 88 116 142 150 162 157 171 178 186 163 153 127 45 309 332 336 327 344 351 9 17 29 34 355 355 357
289 298 300 303 312 317 309 293 290 282 280 229 252 220 210 183 172 152 150 133 101 117 102 54 12 336 175 200 217 205 199 207 179 218 202 268 300 306 293 297 300 318 340 0 348 0 16 9 357
285 291 296 303 310 312 306 294 294 288 278 266 230 243 226 209 183 181 170 155 131 326 340 109 311 328 278 249 255 236 224 222 247 236 236 246 261 294 281 304 268 294 327 4 355 351 17 7 354
287 291 295 302 312 314 304 318 321 317 293 272 260 230 237 239 216 224 206 211 242 290 270 284 268 245 227 243 243 245 256 254 262 261 248 260 249 289 297 262 277 292 313 323 335 314 306 348 0
286 288 290 298 307 318 333 310 274 317 286 272 263 260 235 234 236 240 240 247 256 280 280 286 258 233 230 231 247 248 235 253 251 270 253 264 282 261 282 283 289 296 298 302 291 289 279 297 325
284 285 287 291 291 285 255 269 202 315 265 261 257 261 258 234 234 241 227 234 270 267 269 263 263 242 232 235 242 250 245 248 235 249 268 269 267 261 263 253 283 277 260 268 298 318 295 290 295
281 279 284 289 291 286 292 283 263 266 273 266 264 256 258 254 234 234 239 233 264 260 261 257 280 274 275 245 248 260 274 265 256 250 249 261 274 262 256 270 275 281 277 279 301 306 287 278 284
272 278 283 285 286 290 300 293 287 257 256 279 271 265 254 259 254 251 249 247 256 262 258 249 272 271 268 271 249 267 274 262 257 269 271 272 271 267 263 254 260 265 275 266 260 285 275 279 271
261 260 269 277 285 298 313 296 297 285 284 287 290 284 276 262 261 267 266 265 262 256 254 260 271 267 270 285 284 273 259 267 262 261 274 284 276 269 272 265 264 258 263 277 276 288 296 291 291
251 252 258 269 273 244 263 284 284 295 294 296 297 294 290 280 272 263 259 266 264 250 256 266 272 275 269 276 284 283 276 261 262 266 265 271 272 278 262 268 268 269 266 276 283 275 281 280 282
248 247 255 262 265 255 232 233 264 288 291 291 297 295 297 296 292 284 278 269 262 260 257 258 264 268 269 274 273 276 275 271 266 269 272 271 271 268 273 267 279 287 283 282 281 289 283 282 282
242 246 251 260 264 264 266 267 277 300 298 300 298 295 300 302 302 294 287 282 275 267 266 261 259 264 271 272 273 273 275 270 270 275 279 280 277 280 278 279 278 279 281 279 281 285 280 282 279
240 244 249 256 263 263 273 278 297 72 268 277 293 295 296 299 299 297 292 286 279 276 273 267 265 262 268 270 269 272 279 280 279 282 282 282 280 283 285 282 281 281 282 284 279 281 282 277 274
238 244 248 253 257 268 277 269 248 226 242 259 281 291 293 292 296 300 298 297 296 291 287 284 278 276 274 274 275 278 278 281 281 281 282 281 278 279 284 284 281 282 282 282 285 284 284 285 282
Height
10990 10986 10979 10977 10975 10970 10967 10964 10962 10960 10958 10956 10955 10955 10956 10958 10957 10960 10959 10961 10959 10959 10962 10962 10961 10960 10964 10965 10965 10967 10965 10965 10965 10964 10961 10960 10959 10959 10958 10957 10954 10952 10948 10944 10939 10937 10935 10932 10931
10990 10985 10982 10976 10974 10970 10966 10962 10960 10958 10955 10952 10951 10951 10950 10951 10952 10953 10953 10954 10955 10956 10957 10958 10955 10957 10961 10965 10965 10965 10963 10962 10963 10961 10960 10960 10959 10959 10958 10957 10955 10953 10949 10945 10941 10938 10935 10933 10929
10992 10987 10982 10977 10972 10967 10964 10961 10958 10955 10952 10950 10947 10946 10944 10945 10945 10948 10946 10948 10950 10952 10954 10954 10955 10956 10959 10962 10964 10963 10963 10961 10961 10961 10960 10959 10959 10959 10958 10957 10956 10953 10950 10946 10943 10939 10935 10932 10929
10993 10985 10981 10977 10970 10965 10962 10960 10957 10954 10951 10949 10946 10943 10941 10939 10939 10941 10942 10946 10948 10950 10951 10953 10955 10957 10959 10960 10960 10959 10961 10959 10959 10960 10959 10959 10958 10959 10958 10959 10957 10954 10951 10948 10944 10939 10936 10932 10929
10991 10986 10981 10976 10971 10967 10963 10960 10956 10953 10950 10947 10946 10942 10939 10938 10935 10935 10939 10943 10946 10948 10951 10952 10953 10956 10957 10957 10957 10957 10957 10957 10956 10958 10958 10958 10958 10958 10958 10958 10957 10955 10952 10949 10945 10941 10936 10932 10929
10991 10986 10981 10976 10973 10968 10965 10961 10957 10954 10951 10948 10945 10941 10939 10937 10935 10935 10937 10940 10943 10945 10948 10950 10952 10953 10954 10955 10955 10955 10954 10954 10954 10957 10957 10959 10959 10959 10959 10958 10956 10955 10952 10949 10946 10941 10937 10933 10928
10992 10986 10981 10977 10973 10970 10967 10963 10959 10955 10953 10950 10945 10939 10935 10934 10935 10935 10937 10939 10941 10944 10947 10949 10952 10953 10953 10953 10953 10952 10952 10953 10954 10956 10958 10959 10961 10960 10961 10959 10958 10955 10952 10950 10947 10942 10938 10933 10929
10992 10986 10982 10977 10974 10971 10969 10965 10961 10958 10955 10951 10947 10941 10935 10933 10934 10936 10938 10939 10941 10943 10946 10949 10951 10952 10952 10951 10950 10950 10951 10953 10956 10958 10960 10961 10961 10961 10962 10960 10959 10957 10954 10952 10949 10944 10939 10934 10930
10992 10987 10983 10979 10976 10973 10971 10967 10964 10961 10958 10955 10950 10946 10941 10937 10936 10937 10939 10940 10943 10945 10948 10950 10950 10950 10949 10949 10950 10951 10953 10954 10957 10960 10961 10962 10962 10962 10961 10960 10959 10957 10955 10953 10950 10946 10941 10936 10932
10991 10987 10984 10981 10977 10975 10973 10969 10966 10964 10961 10959 10954 10951 10946 10943 10941 10941 10940 10941 10943 10945 10947 10948 10949 10949 10949 10949 10949 10952 10954 10957 10960 10961 10962 10962 10962 10962 10960 10960 10959 10957 10956 10954 10951 10948 10943 10939 10933
10991 10988 10984 10982 10979 10976 10974 10971 10968 10966 10964 10962 10959 10955 10953 10949 10947 10946 10945 10945 10945 10947 10949 10950 10950 10950 10951 10952 10953 10955 10958 10960 10962 10963 10963 10963 10963 10963 10962 10962 10960 10958 10956 10953 10950 10949 10944 10940 10936
10992 10988 10984 10982 10979 10977 10976 10974 10970 10967 10967 10965 10961 10960 10956 10955 10954 10953 10951 10951 10950 10950 10951 10952 10953 10954 10955 10956 10957 10959 10961 10962 10962 10963 10964 10963 10963 10964 10963 10962 10961 10959 10958 10954 10951 10954 10946 10943 10938
10991 10987 10983 10981 10979 10977 10976 10974 10972 10970 10969 10967 10965 10962 10962 10961 10959 10957 10957 10956 10955 10955 10955 10955 10956 10958 10959 10960 10961 10962 10963 10963 10963 10963 10964 10964 10964 10964 10965 10964 10962 10960 10958 10955 10953 10950 10947 10944 10940
10990 10987 10982 10981 10979 10978 10977 10975 10971 10971 10971 10970 10968 10965 10964 10964 10964 10963 10962 10961 10959 10959 10959 10959 10958 10959 10960 10961 10963 10965 10965 10964 10965 10966 10966 10965 10965 10965 10965 10964 10962 10961 10958 10956 10953 10951 10948 10942 10940
10988 10985 10981 10979 10980 10980 10983 10980 10973 10971 10972 10972 10969 10968 10967 10967 10967 10966 10966 10966 10965 10964 10964 10961 10960 10960 10960 10961 10963 10964 10965 10966 10967 10968 10967 10967 10966 10966 10965 10963 10961 10961 10958 10956 10955 10951 10948 10945 10942
10986 10985 10981 10977 10978 10980 10987 10980 10972 10971 10971 10971 10970 10970 10967 10967 10967 10967 10967 10967 10967 10967 10966 10965 10964 10962 10961 10961 10962 10964 10965 10965 10965 10965 10966 10966 10965 10965 10965 10963 10961 10960 10958 10956 10954 10952 10949 10946 10943
10986 10999 10980 10976 10975 10977 10977 10974 10971 10970 10971 10971 10971 10969 10968 10968 10970 10970 10970 10969 10968 10969 10969 10968 10966 10965 10965 10963 10963 10964 10965 10965 10965 10965 10965 10966 10965 10965 10964 10963 10962 10960 10958 10956 10954 10950 10950 10948 10944
10989 10978 10977 10975 10974 10974 10974 10971 10968 10967 10968 10969 10969 10970 10970 10970 10970 10971 10971 10972 10972 10969 10968 10968 10967 10967 10966 10966 10964 10964 10965 10964 10966 10966 10964 10964 10964 10963 10962 10962 10963 10961 10958 10956 10955 10952 10950 10950 10947
10978 10975 10974 10973 10973 10972 10971 10970 10969 10968 10967 10966 10967 10968 10970 10970 10972 10971 10970 10969 10972 10971 10970 10968 10967 10966 10966 10965 10964 10962 10964 10964 10965 10965 10964 10962 10961 10962 10961 10960 10959 10959 10957 10956 10955 10953 10951 10949 10947
10971 10970 10969 10970 10971 10969 10968 10971 10971 10970 10968 10965 10963 10967 10968 10970 10971 10969 10969 10969 10969 10969 10969 10969 10967 10966 10966 10964 10964 10964 10965 10964 10963 10963 10962 10961 10960 10959 10958 10957 10956 10955 10954 10954 10953 10950 10950 10948 10946
10967 10966 10966 10967 10967 10965 10966 10970 10970 10969 10965 10962 10961 10963 10965 10966 10968 10967 10967 10968 10966 10968 10967 10966 10965 10965 10965 10965 10963 10963 10962 10961 10961 10960 10959 10957 10957 10957 10957 10955 10953 10951 10950 10949 10949 10948 10947 10946 10944
10963 10961 10962 10963 10964 10962 10961 10968 10964 10963 10958 10958 10958 10959 10960 10963 10962 10963 10964 10964 10960 10964 10964 10962 10962 10961 10961 10963 10963 10962 10961 10959 10958 10957 10957 10956 10954 10954 10953 10952 10951 10948 10946 10944 10941 10941 10942 10941 10941
10957 10957 10958 10959 10960 10959 10958 10959 10965 10963 10958 10957 10956 10956 10956 10957 10958 10958 10959 10959 10956 10960 10959 10958 10959 10958 10958 10957 10958 10961 10958 10957 10955 10954 10953 10951 10950 10949 10948 10946 10943 10940 10938 10936 10935 10935 10935 10936 10936
10952 10954 10954 10954 10955 10955 10956 10954 10957 10968 10960 10954 10953 10952 10952 10951 10952 10952 10952 10953 10953 10953 10953 10953 10954 10954 10953 10953 10951 10952 10953 10952 10951 10949 10949 10947 10945 10944 10942 10940 10938 10936 10933 10930 10927 10928 10929 10928 10928
10950 10950 10950 10951 10951 10951 10954 10954 10947 10949 10946 10948 10948 10948 10948 10947 10945 10945 10943 10943 10943 10944 10945 10947 10947 10947 10947 10946 10946 10945 10945 10946 10945 10944 10942 10942 10941 10939 10936 10933 10931 10929 10926 10925 10923 10922 10921 10920 10919
10946 10946 10946 10948 10949 10950 10960 10954 10946 10944 10941 10941 10944 10942 10941 10941 10939 10939 10938 10936 10936 10937 10938 10939 10940 10940 10940 10940 10939 10938 10936 10936 10936 10936 10935 10934 10934 10933 10931 10926 10926 10923 10919 10916 10916 10914 10912 10910 10908
10938 10941 10942 10943 10945 10947 10947 10950 10950 10939 10935 10934 10937 10935 10936 10935 10933 10932 10931 10930 10929 10929 10931 10931 10931 10932 10933 10933 10931 10930 10929 10928 10928 10927 10925 10923 10922 10920 10919 10918 10913 10911 10910 10907 10905 10903 10900 10899 10895
10932 10934 10937 10937 10938 10940 10940 10941 10942 10940 10932 10931 10931 10929 10930 10928 10926 10925 10924 10924 10923 10923 10922 10922 10923 10923 10924 10923 10922 10922 10921 10919 10918 10917 10915 10913 10911 10909 10907 10905 10903 10900 10897 10894 10892 10888 10882 10880 10878
10925 10928 10929 10930 10931 10932 10936 10936 10940 10941 10925 10923 10929 10925 10924 10923 10919 10918 10917 10917 10916 10915 10915 10914 10913 10914 10913 10913 10913 10912 10910 10909 10907 10905 10904 10901 10899 10896 10893 10890 10886 10883 10879 10874 10871 10867 10863 10859 10854
10919 10920 10922 10924 10923 10926 10929 10930 10934 10934 10931 10925 10923 10921 10920 10917 10915 10912 10910 10909 10908 10908 10907 10906 10906 10905 10904 10903 10903 10901 10900 10898 10896 10893 10891 10888 10884 10881 10876 10872 10867 10863 10859 10853 10848 10843 10838 10834 10829